When you browse on this site, cookies collect data to enhance your experience and personalize the content and advertising you see.
Visit our Privacy Policy to learn more. By continuing to use the site, you agree to this use of cookies and data.
  • In Sweden
  • List of Countries
  • For 7 days
  • Water Temperature
  • Weather Map
  • Weather Widgets
  • user-avatar
    Login

    Hourly Weather Úrhida

    Today, 14 October, Monday

    Time Temperature Precipitation Wind Pressure Humidity
    00:00 +15°C° 0 mm 1 mps 749 mmHg 80%
    01:00 +15°C° 0 mm 1 mps 749 mmHg 79%
    02:00 +15°C° 0 mm 1 mps 749 mmHg 79%
    03:00 +14°C° 0 mm 1 mps 748 mmHg 79%
    04:00 +14°C° 0 mm 1 mps 748 mmHg 79%
    05:00 +14°C° 0 mm 1 mps 748 mmHg 80%
    06:00 +14°C° 0 mm 1 mps 748 mmHg 80%
    07:00 +14°C° 0 mm 1 mps 749 mmHg 80%
    08:00 +16°C° 0 mm 2 mps 749 mmHg 74%
    09:00 +18°C° 0 mm 2 mps 749 mmHg 67%
    10:00 +20°C° 0 mm 2 mps 748 mmHg 61%
    11:00 +21°C° 0 mm 3 mps 748 mmHg 56%
    12:00 +22°C° 0 mm 3 mps 748 mmHg 51%
    13:00 +25°C° 0 mm 3 mps 748 mmHg 46%
    14:00 +24°C° 0 mm 3 mps 748 mmHg 48%
    15:00 +24°C° 0 mm 3 mps 747 mmHg 50%
    16:00 +24°C° 0 mm 3 mps 747 mmHg 51%
    17:00 +21°C° 0 mm 3 mps 747 mmHg 56%
    18:00 +20°C° 0 mm 3 mps 747 mmHg 61%
    19:00 +18°C° 0 mm 2 mps 747 mmHg 67%
    20:00 +18°C° 0 mm 2 mps 747 mmHg 69%
    21:00 +17°C° 0 mm 2 mps 746 mmHg 71%
    22:00 +17°C° 0 mm 2 mps 746 mmHg 73%
    23:00 +16°C° 0 mm 2 mps 746 mmHg 74%

    Tomorrow, 15 October, Tuesday

    Time Temperature Precipitation Wind Pressure Humidity
    00:00 +16°C° 0 mm 2 mps 746 mmHg 75%
    01:00 +16°C° 0 mm 2 mps 746 mmHg 76%
    02:00 +15°C° 0 mm 2 mps 746 mmHg 78%
    03:00 +15°C° 0 mm 2 mps 745 mmHg 79%
    04:00 +15°C° 0 mm 2 mps 745 mmHg 80%
    05:00 +14°C° 0 mm 2 mps 745 mmHg 80%
    06:00 +14°C° 0 mm 2 mps 745 mmHg 81%
    07:00 +14°C° 0 mm 2 mps 745 mmHg 81%
    08:00 +17°C° 0 mm 3 mps 745 mmHg 73%
    09:00 +19°C° 0 mm 3 mps 745 mmHg 65%
    10:00 +21°C° 0 mm 4 mps 745 mmHg 56%
    11:00 +22°C° 0 mm 4 mps 744 mmHg 52%
    12:00 +23°C° 0 mm 5 mps 744 mmHg 48%
    13:00 +24°C° 0 mm 6 mps 744 mmHg 44%
    14:00 +24°C° 0 mm 6 mps 743 mmHg 46%
    15:00 +23°C° 0 mm 5 mps 743 mmHg 48%
    16:00 +23°C° 0 mm 5 mps 742 mmHg 49%
    17:00 +21°C° 0 mm 5 mps 742 mmHg 53%
    18:00 +20°C° 0 mm 4 mps 743 mmHg 56%
    19:00 +19°C° 0 mm 4 mps 743 mmHg 60%
    20:00 +18°C° 0 mm 4 mps 743 mmHg 61%
    21:00 +18°C° 0 mm 4 mps 743 mmHg 62%
    22:00 +17°C° 0 mm 4 mps 743 mmHg 63%
    23:00 +17°C° 0 mm 4 mps 744 mmHg 65%

    Day after tomorrow, 16 October, Wednesday

    Time Temperature Precipitation Wind Pressure Humidity
    00:00 +17°C° 0 mm 4 mps 744 mmHg 67%
    01:00 +17°C° 0 mm 4 mps 744 mmHg 69%
    02:00 +16°C° 0 mm 3 mps 744 mmHg 71%
    03:00 +16°C° 0 mm 2 mps 744 mmHg 73%
    04:00 +15°C° 0 mm 2 mps 744 mmHg 75%
    05:00 +15°C° 0 mm 2 mps 745 mmHg 75%
    06:00 +15°C° 0 mm 2 mps 745 mmHg 75%
    07:00 +15°C° 0 mm 2 mps 745 mmHg 74%
    08:00 +16°C° 0 mm 3 mps 746 mmHg 70%
    09:00 +15°C° 0 mm 4 mps 746 mmHg 65%
    10:00 +16°C° 0 mm 5 mps 747 mmHg 61%
    11:00 +15°C° 0.1 mm 4 mps 747 mmHg 62%
    12:00 +15°C° 0.1 mm 4 mps 747 mmHg 64%
    13:00 +15°C° 0.1 mm 4 mps 747 mmHg 65%
    14:00 +16°C° 0 mm 3 mps 747 mmHg 65%
    15:00 +16°C° 0 mm 2 mps 747 mmHg 64%
    16:00 +16°C° 0 mm 1 mps 747 mmHg 63%
    17:00 +15°C° 0 mm 1 mps 747 mmHg 65%
    18:00 +15°C° 0 mm 1 mps 747 mmHg 66%
    19:00 +14°C° 0 mm 1 mps 747 mmHg 68%
    20:00 +14°C° 0 mm 1 mps 747 mmHg 68%
    21:00 +14°C° 0 mm 1 mps 748 mmHg 68%
    22:00 +13°C° 0 mm 1 mps 748 mmHg 68%
    23:00 +13°C° 0 mm 1 mps 748 mmHg 68%

    17 October, Thursday

    Time Temperature Precipitation Wind Pressure Humidity
    00:00 +13°C° 0 mm 1 mps 748 mmHg 68%
    01:00 +13°C° 0 mm 1 mps 748 mmHg 68%
    02:00 +13°C° 0 mm 1 mps 748 mmHg 68%
    03:00 +12°C° 0 mm 1 mps 747 mmHg 69%
    04:00 +11°C° 0 mm 0 mps 747 mmHg 69%
    05:00 +12°C° 0 mm 0 mps 747 mmHg 67%
    06:00 +12°C° 0 mm 0 mps 747 mmHg 66%
    07:00 +13°C° 0 mm 0 mps 747 mmHg 65%
    08:00 +14°C° 0 mm 0 mps 748 mmHg 61%
    09:00 +16°C° 0 mm 1 mps 748 mmHg 57%
    10:00 +19°C° 0 mm 1 mps 748 mmHg 53%
    11:00 +20°C° 0 mm 1 mps 748 mmHg 51%
    12:00 +21°C° 0 mm 1 mps 747 mmHg 50%
    13:00 +21°C° 0 mm 2 mps 747 mmHg 48%
    14:00 +22°C° 0 mm 1 mps 747 mmHg 50%
    15:00 +22°C° 0 mm 1 mps 747 mmHg 52%
    16:00 +21°C° 0 mm 1 mps 746 mmHg 54%
    17:00 +20°C° 0 mm 1 mps 746 mmHg 58%
    18:00 +19°C° 0 mm 1 mps 747 mmHg 62%
    19:00 +18°C° 0 mm 1 mps 747 mmHg 66%
    20:00 +16°C° 0 mm 1 mps 747 mmHg 69%
    21:00 +16°C° 0 mm 1 mps 747 mmHg 72%
    22:00 +14°C° 0 mm 0 mps 747 mmHg 75%
    23:00 +14°C° 0 mm 0 mps 747 mmHg 77%

    18 October, Friday

    Time Temperature Precipitation Wind Pressure Humidity
    00:00 +13°C° 0 mm 0 mps 747 mmHg 79%
    01:00 +13°C° 0 mm 0 mps 747 mmHg 82%
    02:00 +13°C° 0 mm 0 mps 747 mmHg 83%
    03:00 +13°C° 0 mm 0 mps 747 mmHg 84%
    04:00 +12°C° 0 mm 0 mps 747 mmHg 85%
    05:00 +12°C° 0 mm 0 mps 748 mmHg 85%
    06:00 +12°C° 0 mm 0 mps 748 mmHg 84%
    07:00 +13°C° 0 mm 0 mps 748 mmHg 84%
    08:00 +15°C° 0 mm 0 mps 748 mmHg 76%
    09:00 +16°C° 0 mm 0 mps 748 mmHg 68%
    10:00 +18°C° 0 mm 0 mps 749 mmHg 60%
    11:00 +21°C° 0 mm 1 mps 748 mmHg 56%
    12:00 +22°C° 0 mm 1 mps 748 mmHg 52%
    13:00 +23°C° 0 mm 1 mps 748 mmHg 48%
    14:00 +22°C° 0 mm 1 mps 748 mmHg 50%
    15:00 +22°C° 0 mm 1 mps 748 mmHg 52%
    16:00 +21°C° 0 mm 1 mps 747 mmHg 54%
    17:00 +20°C° 0 mm 1 mps 747 mmHg 57%
    18:00 +19°C° 0 mm 1 mps 747 mmHg 61%
    19:00 +15°C° 0 mm 0 mps 747 mmHg 64%
    20:00 +15°C° 0 mm 0 mps 747 mmHg 65%
    21:00 +15°C° 0 mm 0 mps 747 mmHg 66%
    22:00 +15°C° 0 mm 0 mps 747 mmHg 66%
    23:00 +14°C° 0 mm 0 mps 747 mmHg 68%

    19 October, Saturday

    Time Temperature Precipitation Wind Pressure Humidity
    00:00 +14°C° 0 mm 0 mps 747 mmHg 69%
    01:00 +14°C° 0 mm 0 mps 747 mmHg 71%
    02:00 +14°C° 0 mm 0 mps 747 mmHg 73%
    03:00 +13°C° 0 mm 0 mps 746 mmHg 74%
    04:00 +14°C° 0 mm 1 mps 746 mmHg 76%
    05:00 +14°C° 0 mm 1 mps 746 mmHg 77%
    06:00 +14°C° 0 mm 1 mps 746 mmHg 77%
    07:00 +14°C° 0 mm 1 mps 746 mmHg 78%
    08:00 +16°C° 0 mm 1 mps 746 mmHg 71%
    09:00 +18°C° 0 mm 2 mps 746 mmHg 63%
    10:00 +20°C° 0 mm 3 mps 746 mmHg 56%
    11:00 +21°C° 0 mm 3 mps 746 mmHg 53%
    12:00 +22°C° 0 mm 4 mps 745 mmHg 49%
    13:00 +23°C° 0 mm 4 mps 745 mmHg 46%
    14:00 +23°C° 0 mm 4 mps 745 mmHg 48%
    15:00 +22°C° 0 mm 3 mps 745 mmHg 49%
    16:00 +21°C° 0 mm 3 mps 744 mmHg 51%
    17:00 +20°C° 0 mm 3 mps 744 mmHg 54%
    18:00 +19°C° 0 mm 3 mps 744 mmHg 57%
    19:00 +18°C° 0 mm 3 mps 744 mmHg 60%
    20:00 +18°C° 0 mm 3 mps 744 mmHg 60%
    21:00 +17°C° 0 mm 3 mps 744 mmHg 60%
    22:00 +17°C° 0 mm 3 mps 744 mmHg 60%
    23:00 +17°C° 0 mm 4 mps 744 mmHg 62%
    Show more